Location: Melbourne
(37.8170°S, 144.9670°E)
Time: 05:03:19
(UTC+11:00)

Daily predictions for brighter satellites

Satellite Brightness Start Highest point End
(mag) Time Altitude Azimuth Time Altitude Azimuth Time Altitude Azimuth
ATLAS 3B R/B 4.5 01:46:27 10° SSW 01:52:23 26° SE 01:52:45 26° SE
ATLAS 2AS CENTAUR R/B 4.2 02:38:04 26° SE 02:38:04 26° SE 02:40:30 10° SSE
Resurs 1-4 Rocket 4.5 03:26:17 15° SSW 03:26:17 15° SSW 03:27:08 10° SSW
USA 238 DEB 4.3 03:17:40 10° SSW 03:23:50 54° SSE 03:23:50 54° SSE
USA 238 4.3 03:17:45 10° SSW 03:24:03 55° SSE 03:24:03 55° SSE
CZ-2D R/B 4.5 03:35:43 15° SSW 03:35:43 15° SSW 03:36:42 10° SSW
Okean O Rocket 3.9 03:39:12 22° SSE 03:39:12 22° SSE 03:41:21 10° S
ATLAS 3B R/B 4.0 03:36:27 10° SW 03:39:54 31° SW 03:39:54 31° SW
COSMOS 2455 4.4 03:46:03 10° S 03:51:26 32° SE 03:56:47 10° ENE
Nadezhda 4 Rocket 4.3 03:56:52 63° SSE 03:56:52 63° SSE 04:02:04 10° S
Cosmos 2082 Rocket 3.5 04:13:04 29° NE 04:14:09 31° ENE 04:19:05 10° SE
NOSS 3-4 (A) 3.9 04:17:34 65° N 04:18:46 79° ENE 04:26:30 10° SE
NOSS 3-4 (C) 3.9 04:17:39 65° N 04:18:53 78° ENE 04:26:37 10° SE
Tiangong 2 4.4 04:24:27 13° ESE 04:24:27 13° ESE 04:24:52 10° ESE
ATLAS 2AS CENTAUR R/B 4.2 04:25:30 19° SW 04:25:52 19° SW 04:30:05 10° S
SL-16 R/B 2.8 04:28:04 10° SSE 04:34:18 66° ENE 04:36:19 43° NNE
ADEOS II 2.0 04:35:27 87° SSW 04:35:27 87° SSW 04:40:44 10° SSW
ATLAS CENTAUR R/B 2.6 04:37:13 35° S 04:37:13 35° S 04:39:51 10° SSE
Okean-O 4.1 04:34:05 12° NE 04:37:45 37° ESE 04:41:53 10° S
Cosmos 1833 Rocket 3.5 04:36:51 35° NNE 04:38:35 46° ENE 04:43:59 10° SE
Centaur D AC-28 4.1 04:40:33 18° NNE 04:40:33 18° NNE 04:42:34 10° NE
Cosmos 1869 Rocket 4.1 04:39:33 56° E 04:39:39 56° E 04:44:04 10° SSE
Cosmos 2278 4.1 04:34:17 10° SSW 04:39:59 64° ESE 04:45:36 10° NNE
Cosmos 1655 Rocket 4.4 04:38:02 31° NNE 04:41:09 64° E 04:47:32 10° SSE
Cosmos 2195 Rocket 4.4 04:40:48 57° N 04:42:13 89° E 04:48:27 10° S
CZ-4B R/B 3.2 04:42:50 66° WSW 04:42:50 66° WSW 04:48:06 10° SSW
Okean 1-7 4.1 04:40:09 10° S 04:44:25 44° E 04:46:44 23° NE
RESURS DK-1 2.9 04:45:15 56° E 04:45:15 56° E 04:49:01 10° SSE
Meteor 1-26 Rocket 4.2 04:41:32 10° S 04:47:32 89° W 04:49:57 38° N
USA 215 4.3 04:41:37 10° ESE 04:47:41 38° NE 04:50:55 24° N
Cosmos 2221 Rocket 4.1 04:43:50 10° S 04:48:22 60° E 04:50:00 37° NE
Cosmos 1092 Rocket 4.2 04:53:19 48° W 04:53:36 48° W 04:59:44 10° S
Cosmos 1656 4.4 04:50:36 10° SSW 04:56:05 54° ESE 05:01:34 10° NE
DELTA 2 R/B (1) 3.6 04:55:04 53° WSW 04:56:22 75° S 05:01:57 10° E
Meteor PRIRODA 3.9 04:57:00 70° ESE 04:57:00 70° ESE 05:00:45 10° S
Iridium 4 Rocket 3.9 04:54:10 23° NNE 04:57:34 65° E 05:02:37 10° S
Meteor 2-10 Rocket 3.4 04:53:51 10° SSW 04:59:12 69° W 05:00:00 59° NNW
Cosmos 1553 Rocket 4.3 04:56:48 10° S 05:02:54 63° E 05:08:57 10° NNE
Meteor 1-31 Rocket 3.0 05:05:47 29° NNE 05:07:35 68° ESE 05:11:28 10° S
UNK 4.0 05:06:29 10° S 05:10:58 48° WSW 05:11:09 48° W
Cosmos 1110 Rocket 3.9 05:07:34 10° SSW 05:12:55 88° WNW 05:18:08 10° NNE
Okean O Rocket 3.8 05:16:41 13° SW 05:16:41 13° SW 05:17:24 10° SW
NOSS 3-2 (A) 3.4 05:09:47 10° SW 05:16:00 54° WNW 05:21:45 10° NNE
Cosmos 1697 Rocket 3.2 05:14:10 10° SSW 05:19:48 61° ESE 05:25:23 10° NE
ERS-2 4.2 05:23:02 17° SW 05:23:02 17° SW 05:24:08 10° SW
OAO 3 Copernicus 4.3 05:20:34 44° WNW 05:22:01 64° N 05:27:02 10° E
Cosmos 1733 Rocket 4.0 05:21:38 10° NNE 05:25:50 48° E 05:30:08 10° SSE
Cosmos 1980 Rocket 3.6 05:20:44 10° S 05:26:04 40° ESE 05:31:19 10° NE
BREEZE-M DEB (TANK) 4.1 05:27:09 23° N 05:28:37 35° NE 05:34:45 10° ESE
Cosmos 1606 3.4 05:26:32 10° S 05:30:20 54° E 05:34:06 10° NNE
Cosmos 1302 Rocket 4.3 05:28:10 10° SSW 05:33:31 71° ESE 05:38:47 10° NNE
Cosmos 1400 Rocket 2.7 05:31:35 22° N 05:34:06 87° E 05:38:07 10° S
Cosmos 1825 2.6 05:31:26 12° N 05:34:57 62° E 05:38:47 10° SSE
Cosmos 2251 Rocket 3.8 05:33:25 30° NW 05:35:47 51° WSW 05:41:05 10° S
NOAA 6 4.0 05:30:43 10° NNE 05:35:52 85° WNW 05:41:05 10° SSW
COSMOS 2455 3.2 05:31:50 10° SW 05:37:25 40° WNW 05:42:57 10° N
Cosmos 1782 2.7 05:37:58 10° S 05:42:02 76° W 05:46:00 10° N
CENTAUR R/B 3.0 05:38:34 10° SSW 05:44:34 56° SE 05:50:06 10° NE
NOSS 3-2 (C) 3.7 05:40:56 10° SW 05:46:52 41° WNW 05:52:23 10° N
USA 81 4.3 05:45:15 10° S 05:50:36 75° E 05:55:54 10° N
USA 161 3.5 05:49:00 10° SSW 05:49:58 15° SW 05:49:58 15° SW
Cosmos 1892 4.4 05:52:35 17° WSW 05:52:35 17° WSW 05:55:02 10° SSW
ERBS 2.7 05:50:44 17° WSW 05:53:08 41° NW 05:56:27 10° NNE
Meteor 1-27 Rocket 3.9 05:51:17 10° S 05:56:54 79° E 06:02:33 10° NNE
Cosmos 2082 Rocket 3.0 05:54:58 20° WNW 05:58:07 33° WSW 06:03:15 10° S
Tiangong 2 1.2 05:56:27 17° WSW 05:58:46 72° SSE 06:01:54 10° ENE
Cosmos 1408 2.8 05:59:35 12° NNW 06:03:01 50° W 06:06:46 10° S
CZ-2C R/B 4.3 05:59:22 10° NE 06:04:07 36° ESE 06:08:51 10° S
ASTRO E2 4.4 06:03:36 16° NW 06:04:58 19° NNW 06:07:49 10° NNE
SL-16 R/B 4.3 06:00:49 10° S 06:05:53 31° ESE 06:10:53 10° ENE
SL-8 R/B 4.0 06:01:43 10° WSW 06:06:22 47° NW 06:10:58 10° NNE
Cosmos 44 4.2 06:05:22 10° SSW 06:10:37 60° ESE 06:15:56 10° NE
Cosmos 44 Rocket 3.5 06:06:50 10° SSW 06:12:01 89° SE 06:17:12 10° NNE
Cosmos 2266 Rocket 4.1 06:07:15 10° NNW 06:13:11 56° W 06:19:18 10° S
Cosmos 1315 Rocket 3.0 06:09:18 10° NNW 06:13:23 58° W 06:17:34 10° S
Okean-O 4.0 06:11:40 12° NW 06:14:20 18° W 06:17:28 10° SW
SL-16 R/B 3.9 06:13:02 10° SSW 06:17:19 20° WSW 06:21:24 11° WNW
Cosmos 2322 Rocket 3.7 06:14:56 10° S 06:20:22 42° ESE 06:25:45 10° NE
Cosmos 1833 Rocket 3.9 06:18:34 12° WNW 06:22:42 24° WSW 06:27:18 10° S
Cosmos 2360 4.2 06:17:26 10° SSW 06:23:12 85° WNW 06:28:54 10° NNE
RESURS DK-1 4.5 06:21:31 10° WSW 06:23:20 13° SW 06:25:11 10° SSW
CSL-04 Rocket 3.7 06:24:04 10° N 06:29:37 71° WNW 06:35:16 10° SSW
USA 215 3.5 06:24:17 10° SE 06:30:47 59° SW 06:37:14 10° WNW
EO 1 Del DPAF 3.7 06:31:45 10° S 06:35:31 43° WSW 06:39:12 10° NW
GPS 2-04 Rocket1 4.0 06:33:04 10° NW 06:36:08 26° NNE 06:39:08 10° ENE
DELTA 2 R/B (1) 3.7 06:37:23 10° WSW 06:42:59 89° NNW 06:48:36 10° ENE
CZ-3 R/B 2.7 06:40:14 10° WNW 06:55:13 43° NNW 06:59:49 10° ENE
